#timestamp,LO_Frequency,Hit,StdDev 
1551729615.7,286047000.9,P
1551729635.5,286047000.5,P
1551729655.4,286047001.8,P
1551729675.2,286046999.7,N
1551729695.1,286047000.1,N
1551729696.0,286047000.1,N
1551729715.8,286047000.2,N
1551729735.6,286047001.0,N
1551729755.5,286047000.2,N
1551729775.3,286047001.8,Y
1551729795.2,286047002.2,P
1551729815.9,286047004.3,P
1551729835.7,286047003.5,N
1551729855.6,286047005.9,Y
1551729875.4,286047002.4,P
1551729895.2,286047002.6,P
1551729915.1,286047002.5,P
1551729916.0,286047002.5,Y
1551729935.8,286046998.3,P
1551729955.7,286046997.0,N
1551729975.5,286046996.8,N
1551729995.3,286046997.8,N
1551730015.2,286046995.1,N
1551730035.0,286046995.2,N
1551730035.9,286046995.2,N
1551730055.8,286046995.7,N
1551730075.6,286046994.4,N
1551730095.4,286046994.1,N
1551730115.3,286046994.5,N
1551730135.1,286046994.6,N
1551730155.8,286046994.8,N
1551730175.7,286046993.0,Y
1551730195.5,286046996.0,P
1551730215.4,286046995.6,P
1551730235.2,286046995.4,P
1551730255.0,286046996.0,Y
1551730255.9,286046996.0,P
1551730275.8,286047000.5,P
1551730295.6,286046998.3,N
1551730315.5,286046998.4,N
1551730335.3,286047000.7,N
1551730355.1,286047001.0,N
1551730375.9,286047000.8,N
1551730395.7,286046998.2,N
1551730415.5,286047000.7,N
1551730435.4,286047000.6,N
1551730455.2,286047000.7,N
1551730475.1,286047000.6,N
1551730476.0,286047000.6,N
1551730495.8,286047000.0,N
1551730515.6,286047000.6,N
1551730535.5,286046999.7,N
1551730555.3,286047002.4,N
1551730575.1,286046999.8,N
1551730595.9,286047002.8,N
1551730615.7,286047000.1,N
1551730635.6,286046999.8,N
1551730655.4,286047002.4,N
1551730675.2,286047002.2,N
1551730695.1,286047000.6,N
1551730696.0,286047000.6,N
1551730715.8,286047000.6,N
1551730735.6,286047001.1,N
1551730755.5,286047000.4,N
1551730775.3,286047000.8,N
1551730795.2,286046998.7,N
1551730815.0,286046998.7,N
1551730815.9,286046998.7,N
1551730835.7,286046998.7,N
1551730855.6,286046999.2,N
1551730875.4,286046999.2,N
1551730895.3,286046997.5,N
1551730915.1,286046995.3,Y
1551730935.8,286046997.4,P
1551730955.7,286046997.5,N
1551730975.5,286046997.4,N
1551730995.4,286046995.0,Y
1551731015.2,286046997.0,P
1551731035.0,286046996.8,P
1551731035.9,286046996.8,P
1551731055.8,286046996.7,Y
1551731075.6,286047002.7,P
1551731095.5,286046999.9,N
1551731115.3,286047002.8,N
1551731135.1,286047000.4,N
1551731155.9,286047000.0,N
1551731175.7,286047000.7,N
1551731195.5,286047000.4,N
1551731215.4,286046998.1,N
1551731235.2,286047000.3,N
1551731255.1,286047002.8,N
1551731256.0,286047002.8,N
1551731275.8,286047000.6,N
1551731295.6,286046998.7,N
1551731315.5,286047000.9,N
1551731335.3,286047001.2,N
1551731355.1,286047001.2,N
1551731375.9,286047000.4,N
1551731395.7,286047001.1,N
1551731415.6,286047000.1,N
1551731435.4,286046999.8,N
1551731455.2,286047001.3,N
1551731475.1,286047004.0,N
1551731476.0,286047004.0,N
1551731495.8,286047001.5,N
1551731515.7,286047001.5,N
1551731535.5,286047001.6,N
1551731555.3,286046999.8,N
1551731575.2,286047002.2,N
1551731595.0,286047003.8,N
1551731595.9,286047003.8,N
1551731615.7,286047001.6,N
1551731635.6,286047002.0,N
1551731655.4,286047000.1,N
1551731675.3,286047000.1,N
1551731695.1,286047001.7,N
1551731696.0,286047001.7,N
1551731715.8,286047001.5,N
1551731735.7,286047002.5,N
1551731755.5,286047002.5,N
1551731775.3,286047002.6,N
1551731795.2,286047000.4,N
1551731815.0,286047000.3,N
1551731815.9,286047000.3,N
1551731835.8,286047000.0,N
1551731855.6,286047002.0,N
1551731875.4,286047002.6,N
1551731895.3,286047002.4,N
1551731915.1,286047002.0,N
1551731935.9,286047001.8,N
1551731955.7,286047003.7,Y
1551731975.5,286047000.1,P
1551731995.4,286047000.5,N
1551732015.2,286046998.1,N
1551732035.0,286047000.0,N
1551732035.9,286047000.0,N
1551732055.8,286047000.2,N
1551732075.6,286047002.0,N
1551732095.5,286047002.6,N
1551732115.3,286047002.4,N
1551732135.1,286047001.5,N
1551732155.9,286047002.6,N
1551732175.7,286047003.9,N
1551732195.6,286047001.8,N
1551732215.4,286047002.3,N
1551732235.2,286047001.4,N
1551732255.1,286047001.7,N
1551732256.0,286047001.7,N
1551732275.8,286047002.3,N
1551732295.6,286047002.2,N
1551732315.5,286047002.6,N
1551732335.3,286047001.4,N
1551732355.2,286047003.6,N
1551732375.9,286047004.0,Y
1551732395.7,286046999.8,P
1551732415.6,286046999.9,N
1551732435.4,286046999.9,N
1551732455.3,286047002.7,Y
1551732475.1,286047001.9,P
1551732476.0,286047001.9,N
1551732495.8,286046999.8,N
1551732515.7,286047002.3,N
1551732535.5,286047002.8,N
1551732555.3,286047000.0,N
1551732575.2,286047002.5,N
1551732595.0,286047002.2,N
1551732595.9,286047002.2,N
1551732615.8,286047002.3,N
1551732635.6,286047002.6,N
1551732655.4,286047002.1,N
1551732675.3,286047002.2,N
1551732695.1,286047001.6,N
1551732715.8,286047002.1,N
1551732735.7,286047001.9,N
1551732755.5,286047001.3,N
1551732775.4,286047002.3,N
1551732795.2,286047002.8,Y
1551732815.0,286047000.7,P
1551732815.9,286047000.7,N
1551732835.8,286046999.9,N
1551732855.6,286047002.5,Y
1551732875.5,286047000.0,P
1551732895.3,286047000.6,N
1551732915.1,286047000.2,N
1551732935.9,286047001.0,Y
1551732955.7,286046999.0,P
1551732975.6,286046999.6,N
1551732995.4,286046996.6,P
1551733015.2,286046998.9,N
1551733035.1,286046999.2,N
1551733036.0,286046999.2,N
1551733055.8,286046999.1,N
1551733075.6,286046999.4,N
1551733095.5,286046998.3,N
1551733115.3,286046996.9,Y
1551733135.2,286046997.2,P
1551733155.9,286046999.5,N
1551733175.7,286046997.2,N
1551733195.6,286046998.9,N
